Location: Katowice
(50.2611°N, 19.0242°E)
Time: 10:05:32
(UTC+02:00)

ISS - Pass Details

Date: 24 March 2019
Orbit: 408 x 410 km, 51.6° (Epoch: 21 April)

Event Time Altitude Azimuth Distance (km) Brightness Sun altitude
Rises 21:04:30 0° 267° (W) 2,334 0.7 -27.3°
Reaches altitude 10° 21:06:36 10° 270° (W) 1,473 -0.4 -27.5°
Enters shadow 21:07:09 14° 271° (W) 1,251 -0.8 -27.6°
